Air Resources Laboratory banner image
Air Resources Laboratory web site National Oceanic and Atmospheric Administration (NOAA)

al roundup


Office: HUN

ASUS44 KHUN 181610
RWRHUN

WEATHER ROUNDUP FOR THE TENNESSEE VALLEY
NATIONAL WEATHER SERVICE HUNTSVILLE AL
1100 AM CDT SAT AUG 18 2018

ALZ001>004-181700-
NORTHWEST ALABAMA

CITY           SKY/WX    TMP DP  RH WIND       PRES   REMARKS
COURTLAND HCN    N/A     79 N/A N/A SW8         N/A
RUSSELLVILLE     N/A     77 N/A N/A MISG        N/A
SHOALS AIRPORT PTSUNNY   83  70  64 W9        30.05F
SHOALS TVA RES   N/A     79 N/A N/A MISG        N/A
$$

ALZ005>007-016-181700-
NORTH CENTRAL ALABAMA

CITY           SKY/WX    TMP DP  RH WIND       PRES   REMARKS
CULLMAN AG STN   N/A     77 N/A N/A W5          N/A
DECATUR AP     CLOUDY    77  71  82 W8        30.05F
HUNTSVILLE AP  CLOUDY    80  72  76 SW7       30.05F
MERIDIANVILLE  CLOUDY    77  71  80 SW8       30.06S
REDSTONE ARSN  PTSUNNY   79  70  75 W5        30.04F
VINEMONT AP    CLOUDY    77  70  78 SW7       30.09F
$$

ALZ008>010-181700-
NORTHEAST ALABAMA

CITY           SKY/WX    TMP DP  RH WIND       PRES   REMARKS
ALBERTVILLE    PTSUNNY   77  73  88 W7        30.07F
FORT PAYNE     CLOUDY    77  70  78 W6        30.06S
SCOTTSBORO AP  FAIR      81  73  78 W9        30.05F
SCOTTSBORO HCN   N/A     79 N/A N/A MISG        N/A
VALLEY HEAD      N/A     77 N/A N/A MISG        N/A
$$

TNZ076-096-097-181700-
SOUTHEASTERN MIDDLE TENNESSEE

CITY           SKY/WX    TMP DP  RH WIND       PRES   REMARKS
TULLAHOMA      CLOUDY    77  72  83 SW6       30.05S
WINCHESTER     CLOUDY    77  70  78 W8        30.05S
$$

...SURROUNDING SITES...

CITY           SKY/WX    TMP DP  RH WIND       PRES   REMARKS
ATLANTA        PTSUNNY   82  71  69 W10       30.09F
ANNISTON       PTSUNNY   80  74  81 SW9       30.06F
BIRMINGHAM     PTSUNNY   80  74  81 W9        30.08F
CHATTANOOGA    PTSUNNY   81  68  64 SW12      30.04F
CORINTH          N/A     79  70  73 SW5       30.03S
DALTON         CLOUDY    79  72  78 S6        30.06F
GADSDEN        PTSUNNY   81  75  82 VRB6      30.06S
GOLDEN TRNGL   RAIN      73  73 100 S5        30.06F
HALEYVILLE     CLOUDY    75  71  87 W5        30.09F
JACKSON TN     PTSUNNY   81  71  71 W7        30.01F
LAWRENCEBURG   CLOUDY    73  70  88 SW6       30.05F
LEWISBURG      CLOUDY    77  72  83 VRB5      30.03S
MEMPHIS        PTSUNNY   79  73  82 SW10G25   30.02S
MURFREESBORO   CLOUDY    79  72  78 SW5       30.01F
NASHVILLE      PTSUNNY   82  69  64 VRB5      30.01F
OXFORD MS      CLOUDY    77  72  83 SW8       30.06R
ROME           FAIR      83  72  69 VRB6      30.04F
SAVANNAH       CLOUDY    81  72  74 W6G12     30.02F
SELMER         CLOUDY    79  72  78 W9        30.02S
TUPELO         CLOUDY    81  72  74 VRB6      30.04S
TUSCALOOSA     CLOUDY    82  74  76 SW6       30.06S
$$

...GULF COAST WEATHER...

CITY           SKY/WX    TMP DP  RH WIND       PRES   REMARKS
GULFPORT       FAIR      84  76  76 S10       30.08F HX  93
PASCAGOULA     CLOUDY    84  74  71 S10       30.09F HX  91
MOBILE         PTSUNNY   85  77  77 VRB3      30.11S HX  95
GULF SHORES    PTSUNNY   75  74  97 CALM      30.13R
PENSACOLA      LGT RAIN  77  75  93 SE5       30.12S
DESTIN         RAIN      77  75  93 CALM      30.13S
PANAMA CITY    FAIR      87  77  71 SW9       30.11S HX  99
APPALACHICOLA  FAIR      89  79  72 S9        30.12F HX 104
$$





Office: BMX ASUS44 KBMX 181610 RWRAL ALABAMA REGIONAL WEATHER ROUNDUP NATIONAL WEATHER SERVICE BIRMINGHAM AL 1100 AM CDT SAT AUG 18 2018 NOTE: "FAIR" INDICATES FEW OR NO CLOUDS BELOW 12,000 FEET WITH NO SIGNIFICANT WEATHER AND/OR OBSTRUCTIONS TO VISIBILITY. THE REMARK "TC" DENOTES TEMPERATURE IN DEGREES CELSIUS. ALZ001>011-014-016>018-020-181700- NORTH ALABAMA CITY SKY/WX TMP DP RH WIND PRES REMARKS MUSCLE SHOALS PTSUNNY 83 70 64 W9 30.05F HUNTSVILLE CLOUDY 80 72 76 SW7 30.05F DECATUR CLOUDY 77 71 82 W8 30.05F HALEYVILLE CLOUDY 75 71 87 W5 30.09F GADSDEN PTSUNNY 81 75 82 VRB6 30.06S $$ ALZ012-013-022-023-030>036-040>044-181700- WEST CENTRAL ALABAMA CITY SKY/WX TMP DP RH WIND PRES REMARKS TUSCALOOSA CLOUDY 82 74 76 SW6 30.06S DEMOPOLIS CLOUDY 82 74 76 W7 30.07R $$ ALZ015-024>026-033>036-041>044-181700- CENTRAL ALABAMA CITY SKY/WX TMP DP RH WIND PRES REMARKS BIRMINGHAM PTSUNNY 80 74 81 W9 30.08F MONTGOMERY PTSUNNY 88 76 67 S5 30.06F THUNDER HX 99 SHELBY CO ARPT PTSUNNY 81 74 79 SW7 30.07F MAXWELL AFB CLOUDY 84 75 73 W3 30.06F HX 92 GREENVILLE PTSUNNY 76 72 87 S6 30.10S THUNDER SELMA PTSUNNY 84 77 79 S6 30.06F HX 94 PRATTVILLE PTSUNNY 83 77 80 W5 30.07F HX 92 BESSEMER CLOUDY 78 75 90 W7 30.08F TALLADEGA PTSUNNY 83 75 78 SW8 30.07F HX 90 PELL CITY PTSUNNY 82 77 83 S8 30.06F HX 91 MARION PTSUNNY 82 77 83 CALM 30.06 HX 91 SYLACAUGA CLOUDY 83 75 78 CALM 30.07F HX 90 $$ ALZ019-021-028-029-037-038-045>048-181700- EAST CENTRAL ALABAMA CITY SKY/WX TMP DP RH WIND PRES REMARKS ANNISTON PTSUNNY 80 74 81 SW9 30.06F ALEXANDER CITY FAIR 80 78 92 SW7 30.09F AUBURN PTSUNNY 79 76 90 SW8 30.12F $$ ALZ051>064-181700- SOUTHWEST ALABAMA CITY SKY/WX TMP DP RH WIND PRES REMARKS MOBILE PTSUNNY 85 77 77 VRB3 30.11S HX 95 BROOKLEY FIELD PTSUNNY 83 76 79 CALM 30.12S HX 91 EVERGREEN PTSUNNY 77 73 87 S7 30.11S $$ ALZ049-050-065>069-181700- SOUTHEAST ALABAMA CITY SKY/WX TMP DP RH WIND PRES REMARKS DOTHAN FAIR 87 73 62 W9 30.14F HX 94 OZARK LGT RAIN 82 75 78 SW18G30 30.11S TROY PTSUNNY 83 77 82 SW8 30.10F HX 92 EUFAULA PTSUNNY 87 76 69 W9 30.08F HX 97 $$